There have been 454 business bankruptcy cases in Delaware in 2022

Click on desired case number or refine your search to continue

Refine Search
Year Filed
Court
Case TitleCourtCase NoChpDate FiledClosedDisposition
Case TitleElectric Last Mile Solutions, Inc.CourtDelaware1:22-bk-10537706/14/2022
Case TitleEAM 40 Meadow Lane LLCCourtDelaware1:22-bk-10293704/06/2022
Case TitleSears Authorized Hometown Stores, LLCCourtDelaware1:22-bk-11303712/12/2022
Case TitleFTX Trading Ltd.CourtDelaware1:22-bk-110681111/11/2022
Case TitleSotera Digital Security Corp. and Sotera Digital Security Corp. f/k/a Hoyos IntegritCourtDelaware1:22-bk-103651104/21/2022
Case TitleRetrotope, Inc.CourtDelaware1:22-bk-102281103/21/2022
Case TitleClarus Therapeutics Holdings, Inc.CourtDelaware1:22-bk-108451109/05/2022
Case TitleDNAtrix, Inc.CourtDelaware1:22-bk-11193711/15/2022
Case TitleReverse Mortgage Investment Trust Inc.CourtDelaware1:22-bk-11225711/30/2022
Case TitleAlfi, Inc.CourtDelaware1:22-bk-10979710/14/2022
Case TitleAIG Financial Products Corp.CourtDelaware1:22-bk-113091112/14/2022
Case TitleNCP Solutions, LLCCourtDelaware1:22-bk-107261108/06/2022Closed09/22/2022DispositionDischarge Not Applicable 09/22/2022
Case TitlePack Liquidating, LLC, et al.CourtDelaware1:22-bk-107971108/28/2022
Case TitleRPH Innovations LLCCourtDelaware1:22-bk-11362712/28/2022
Case TitleCG Virginia, LLCCourtDelaware1:22-bk-11359712/28/2022
Case TitleCG Colorado, LLCCourtDelaware1:22-bk-11352712/28/2022
Case TitleMedly Enterprise LLCCourtDelaware1:22-bk-11262712/09/2022
Case TitleMedly DC Inc.CourtDelaware1:22-bk-11276712/09/2022
Case TitleMedly Orlando Inc.CourtDelaware1:22-bk-11277712/09/2022
Case TitleMedly Health Inc.CourtDelaware1:22-bk-11257712/09/2022
Case TitleCG NJ, LLCCourtDelaware1:22-bk-11356712/28/2022
Case TitleMedly Mail Service Pharmacy LLCCourtDelaware1:22-bk-11279712/09/2022
Case TitleCG Arizona, LLCCourtDelaware1:22-bk-11351712/28/2022
Case TitleMedly Dallas Inc.CourtDelaware1:22-bk-11273712/09/2022
Case TitleMedly Atlanta Inc.CourtDelaware1:22-bk-11261712/09/2022
Case TitlePharmaca Integrative Pharmacy Inc.CourtDelaware1:22-bk-11284712/09/2022
Case TitleMarg Pharmacy Inc.CourtDelaware1:22-bk-11260712/09/2022
Case TitleKhora Health Solutions Inc.CourtDelaware1:22-bk-11361712/28/2022
Case TitleBWSC, LLCCourtDelaware1:22-bk-112391111/30/2022
Case TitleGrubbs Care Pharmacy NW Inc.CourtDelaware1:22-bk-11259712/09/2022
Case TitleWinc Lost Poet, LLCCourtDelaware1:22-bk-112401111/30/2022
Case TitleMedly Tampa Inc.CourtDelaware1:22-bk-11278712/09/2022
Case TitleMedly Baltimore Inc.CourtDelaware1:22-bk-11263712/09/2022
Case TitleMedly Pittsburgh Inc.CourtDelaware1:22-bk-11287712/09/2022
Case TitleEvans Tempcon Delaware, LLCCourtDelaware1:22-bk-11199711/16/2022
Case TitleMedly Chicago Inc.CourtDelaware1:22-bk-11272712/09/2022
Case TitleFTX Japan Holdings K.K.CourtDelaware1:22-bk-110741111/11/2022
Case TitleCare Well Pharmacy Inc.CourtDelaware1:22-bk-11258712/09/2022
Case TitleCG USA Holding, Inc.CourtDelaware1:22-bk-11350712/28/2022
Case TitleCG Pennsylvania, LLCCourtDelaware1:22-bk-11358712/28/2022
Case TitleFTX Japan K.K.CourtDelaware1:22-bk-111021111/11/2022
Case TitleSears Hometown Stores, Inc.CourtDelaware1:22-bk-11304712/12/2022
Case TitleMedly Bristol Inc.CourtDelaware1:22-bk-11268712/09/2022
Case TitleCG Ohio, LLCCourtDelaware1:22-bk-11357712/28/2022
Case TitleSensitive Home Inc.CourtDelaware1:22-bk-110631111/10/2022
Case TitleQuanergy Systems, Inc.CourtDelaware1:22-bk-113051112/13/2022
Case TitleMedly UCHC Pharmacy Inc.CourtDelaware1:22-bk-11280712/09/2022
Case TitleCG Louisiana, LLCCourtDelaware1:22-bk-11355712/28/2022
Case TitleCG Trading Inc.CourtDelaware1:22-bk-11348712/28/2022
Case TitleFTX DIGITAL MARKETS LTD. and Kevin G. CambridgeCourtDelaware1:22-bk-112171511/15/2022